SCP
0 0 0 0 0 0 0 0 0 0 0 0 0 0 0 0 0 0 0 0 0 0 0 0 0 0 0 0 0 0 0 0 0 0 0 0 0 0 0 0 0 0 0
0 0 0 0 0 0 0 0 0 0 0 0 0 0 0 0 0 0 0 0 0 0 0 0 0 0 0 0 0 0 0 0 0 0 0 0 0 0 0 0 0 0 0
0 0 0 0 0 0 0 0 0 0 0 0 0 0 0 0 0 0 0 0 0 0 0 0 0 0 0 0 0 0 0 0 0 0 0 0 0 0 0 0 0 0 0
0 0 0 0 0 0 0 0 0 0 0 0 0 0 0 0 0 0 0 0 0 0 0 0 0 0 0 0 0 0 0 0 0 0 0 0 0 0 0 0 0 0 0
0 0 0 0 0 0 0 0 0 0 0 0 0 0 0 0 0 0 0 0 0 0 0 0 0 0 0 0 0 0 0 0 0 0 0 0 0 0 0 0 0 0 0
0 0 0 0 0 0 0 0 0 0 0 0 0 0 0 0 0 0 0 0 0 0 0 0 0 0 0 0 0 0 0 0 0 0 0 0 0 0 0 0 0 0 0
0 0 0 0 0 0 0 0 0 0 0 0 0 0 0 0 0 0 0 0 0 0 0 0 0 0 0 0 0 0 0 0 0 0 0 0 0 0 0 0 0 0 0
0 0 0 0 0 0 0 0 0 0 0 0 0 0 0 0 0 0 0 0 0 0 0 0 0 0 0 0 0 0 0 0 0 0 0 0 0 0 0 0 0 0 0
0 0 0 0 0 0 0 0 0 0 0 0 0 0 0 0 0 0 0 0 0 0 0 0 0 0 0 0 0 0 0 0 0 0 0 0 0 0 0 0 0 0 0
0 0 0 0 0 0 0 0 0 0 0 0 0 0 0 0 0 0 0 0 0 0 0 0 0 0 0 0 0 0 0 0 0 0 0 0 0 0 0 0 0 0 0
0 0 0 0 0 0 0 0 0 0 0 0 0 0 0 0 0 0 0 0 0 0 0 0 0 0 0 0 0 0 0 0 0 0 0 0 0 0 0 0 0 0 0
0 0 0 0 0 0 0 0 0 0 0 0 0 0 0 0 0 0 0 0 0 0 0 0 0 0 0 0 0 0 0 0 0 0 0 0 0 0 0 0 0 0 0
0 0 0 0 0 0 0 0 0 0 0 0 0 0 0 0 0 0 0 0 0 0 0 0 0 0 0 0 0 0 0 0 0 0 0 0 0 0 0 0 0 0 0
0 0 0 0 0 0 0 0 0 0 0 0 0 0 0 0 0 0 0 0 0 0 0 0 0 0 0 0 0 0 0 0 0 0 0 0 0 0 0 0 0 0 0
0 0 0 0 0 0 0 0 0 0 0 0 0 0 0 0 0 0 0 0 0 0 0 0 0 0 0 0 0 0 0 0 0 0 0 0 0 0 0 0 0 0 0
0 0 0 0 0 0 0 0 0 0 0 0 0 0 0 0 0 0 0 0 0 0 0 0 0 0 0 0 0 0 0 0 0 0 0 0 0 0 0 0 0 0 0
0 0 0 0 0 0 0 0 0 0 0 0 0 0 0 0 0 0 0 0 0 0 0 0 0 0 0 0 0 0 0 0 0 0 0 0 0 0 0 0 0 0 0
0 0 0 0 0 0 0 0 0 0 0 0 0 0 0 0 0 0 0 0 0 0 0 0 0 0 0 0 0 0 0 0 0 0 0 0 0 0 0 0 0 0 0
1 1 0 0 0 0 0 0 0 0 0 0 0 0 0 0 0 0 0 0 0 0 0 0 0 0 0 0 0 0 0 0 0 0 0 0 0 0 0 0 0 0 0
1 1 1 0 0 0 0 0 0 0 0 0 0 0 0 0 0 0 0 0 0 0 0 0 0 0 0 0 0 0 0 0 0 0 0 0 0 0 0 0 0 0 0
1 1 1 1 0 0 0 0 0 0 0 0 0 0 0 0 0 0 0 0 0 0 0 0 0 0 0 0 0 0 0 0 0 0 0 0 0 0 0 0 0 0 0
1 1 1 1 1 0 0 0 0 0 0 0 0 0 0 0 0 0 0 0 0 0 0 0 0 0 0 0 0 0 0 0 0 0 0 0 0 0 0 0 0 0 0
1 1 1 1 1 1 0 0 0 0 0 0 0 0 0 0 0 0 0 0 0 0 0 0 0 0 0 0 0 0 0 0 0 0 0 0 0 0 0 0 0 0 0
1 1 1 1 1 1 0 0 0 0 0 0 0 0 0 0 0 0 0 0 0 0 0 0 0 0 0 0 0 0 0 0 0 0 0 0 0 0 0 0 0 0 0
1 1 1 1 1 1 1 0 0 0 0 0 0 0 0 0 0 0 0 0 0 0 0 0 0 0 0 0 0 0 0 0 0 0 0 0 0 0 0 0 0 0 0
1 1 1 1 1 1 1 1 0 0 0 0 0 0 0 0 0 0 0 0 0 0 0 0 0 0 0 0 0 0 0 0 0 0 0 0 0 0 0 0 0 0 0
Wind_Speed
10 11 11 11 11 11 10 10 11 12 12 12 12 12 12 13 13 14 14 15 15 16 15 15 14 14 14 13 13 13 13 13 13 13 13 13 12 11 11 11 11 10 13
12 12 12 11 11 11 10 11 12 13 13 12 12 12 13 13 13 14 14 14 14 15 14 14 13 13 13 13 12 13 13 12 12 12 12 11 11 10 10 10 10 9 13
13 12 12 11 11 11 11 13 14 14 13 13 13 13 13 13 14 14 14 14 14 14 13 13 13 13 12 12 12 12 11 11 10 11 10 7 8 10 10 11 12 12 12
13 12 11 11 11 11 11 13 13 14 13 13 13 13 14 14 14 14 14 14 13 13 12 12 12 12 12 11 11 10 9 8 8 8 5 6 7 10 10 10 11 11 11
13 12 11 11 11 11 11 12 13 13 13 13 13 13 14 14 13 13 13 13 12 12 11 12 11 11 11 10 9 9 7 6 6 4 3 5 6 10 11 10 10 11 10
13 13 12 12 12 11 11 12 13 13 13 13 13 13 13 13 12 13 12 12 11 10 10 11 11 10 10 9 8 7 5 4 3 3 4 6 6 9 10 10 10 10 9
12 13 12 12 12 11 11 11 12 12 12 12 12 11 12 12 12 12 11 11 10 10 10 11 10 10 10 8 6 5 3 2 2 3 5 6 7 9 10 10 9 9 9
12 13 12 12 12 12 11 11 11 11 11 11 11 11 11 11 11 11 11 10 10 10 10 11 10 10 9 8 6 4 3 1 1 4 6 7 9 10 10 9 9 9 9
12 12 11 11 11 11 11 11 10 11 11 11 10 10 10 10 10 10 10 10 9 9 9 10 10 9 8 7 5 4 3 2 1 2 6 6 9 10 10 9 9 8 8
9 10 9 10 10 10 9 10 10 10 11 10 9 9 9 10 10 10 9 9 9 9 9 8 8 8 7 6 5 4 3 2 2 3 4 6 10 10 10 9 8 8 8
8 7 7 8 8 9 9 10 10 9 9 9 8 9 8 6 7 7 9 9 9 9 8 7 7 7 7 7 7 6 4 2 2 3 4 9 10 10 10 8 8 8 8
8 7 5 7 6 6 6 6 5 6 6 4 4 6 4 3 4 6 9 10 9 8 7 6 7 7 6 4 6 7 3 3 2 3 5 11 10 10 9 8 8 8 8
8 7 6 6 5 5 4 3 2 3 4 4 4 4 3 3 3 4 4 5 5 7 5 5 5 4 3 2 2 3 2 1 1 3 6 11 10 10 9 9 8 8 8
8 7 7 6 5 4 3 2 2 2 2 3 3 3 3 1 2 2 2 3 3 3 3 3 2 2 2 2 2 2 2 1 2 3 5 11 11 10 10 9 8 8 8
7 7 7 6 5 4 2 1 2 2 2 3 2 2 2 2 2 1 1 1 2 2 3 2 2 2 2 2 2 2 2 2 2 3 4 9 10 10 10 9 9 8 7
7 7 6 6 5 3 2 1 1 2 2 2 2 3 2 2 2 2 2 1 1 1 2 2 2 2 1 1 1 1 1 1 1 3 4 6 9 10 9 9 9 8 8
7 6 6 6 6 3 2 1 1 1 2 2 3 3 2 2 2 2 2 1 1 2 2 1 2 2 2 2 2 1 1 1 1 2 4 4 5 8 9 8 8 8 8
8 6 4 5 6 4 2 0 1 1 2 2 2 2 2 3 2 2 2 2 2 2 2 2 2 1 1 1 1 1 1 1 2 2 3 3 3 4 6 8 8 7 7
7 6 4 4 5 4 3 2 1 2 2 2 2 2 2 2 2 2 2 1 2 2 1 1 2 1 1 1 1 2 2 2 2 2 3 4 4 4 3 5 6 6 7
8 6 5 5 3 3 2 2 1 1 1 2 3 3 3 2 1 1 2 2 1 1 1 1 1 1 1 1 1 1 1 2 1 1 2 2 3 4 4 4 4 4 6
9 7 5 5 4 2 2 2 2 1 1 2 3 3 2 2 2 1 1 2 1 1 1 1 1 1 1 1 1 0 0 1 1 1 1 1 2 3 4 4 4 3 3
9 8 7 6 5 3 2 2 2 2 1 2 3 3 2 2 1 2 2 1 2 2 2 1 1 0 0 1 1 1 0 1 1 2 1 1 1 1 3 4 3 4 3
10 9 7 6 5 4 3 2 2 2 1 2 3 2 2 2 2 2 2 1 1 2 2 1 1 1 1 1 1 1 1 1 0 0 1 2 2 1 1 2 3 3 3
11 10 7 7 5 4 3 2 3 3 2 2 2 2 2 3 2 2 2 2 1 1 2 2 2 1 1 1 1 1 1 2 2 0 1 1 2 2 1 1 2 2 3
12 11 9 7 6 5 4 3 2 2 2 2 2 3 2 3 3 2 2 1 1 1 1 0 1 0 0 1 1 1 1 1 2 2 1 1 1 1 1 1 1 1 2
11 11 10 9 7 6 5 4 3 2 2 2 2 3 3 2 2 3 3 2 2 1 1 1 0 1 1 1 1 1 0 1 1 1 1 2 2 1 1 1 1 2 2
Wind_Direction
86 89 83 76 73 71 70 76 84 86 86 88 89 94 95 97 100 103 105 108 113 115 117 118 120 120 120 117 111 110 109 107 108 110 111 111 110 111 113 117 116 109 111
95 94 88 80 77 73 73 84 90 90 88 87 88 92 94 98 103 104 105 107 110 113 116 118 119 120 120 118 116 114 113 114 115 118 119 116 115 116 116 111 106 112 117
101 99 94 84 80 76 80 90 93 92 90 87 87 92 95 98 101 102 104 106 108 110 113 115 117 119 120 121 121 121 121 123 131 134 134 126 120 117 113 110 113 118 119
102 97 94 93 88 84 83 92 94 94 92 90 90 94 97 101 103 104 105 105 106 108 112 115 116 119 123 125 127 129 130 135 144 154 148 131 124 121 120 120 123 123 122
99 99 103 102 97 93 89 90 93 94 93 92 93 97 99 102 104 106 105 107 109 111 113 117 119 120 123 127 132 136 137 141 152 165 109 103 110 128 128 128 131 130 128
111 109 110 109 105 101 97 96 97 96 96 95 95 99 101 104 106 107 108 110 112 114 118 122 123 123 126 130 134 136 143 159 184 167 124 110 113 135 137 135 134 134 132
110 113 117 116 112 110 107 104 102 102 102 102 102 102 103 105 106 108 109 110 111 113 119 125 127 127 127 129 135 143 159 195 222 149 114 111 119 134 137 142 143 136 136
115 117 120 122 119 116 115 115 112 110 110 110 110 109 108 109 109 110 110 111 111 113 119 125 127 128 129 133 143 159 182 235 179 115 111 114 129 135 135 134 142 144 146
114 122 132 132 128 124 121 119 117 119 121 121 121 121 120 118 117 115 112 116 117 118 121 126 131 134 136 145 157 174 190 200 230 132 125 121 137 140 141 145 144 149 153
103 115 129 132 132 134 129 128 127 131 132 133 136 137 136 134 131 129 122 123 125 126 129 135 144 148 150 156 170 192 206 231 204 142 121 130 142 146 149 152 154 158 157
102 106 118 127 131 132 134 137 143 144 147 148 151 156 158 151 144 142 127 134 134 135 141 148 156 162 167 176 190 203 217 213 169 127 118 136 149 153 158 163 164 166 166
112 107 105 106 114 121 119 134 150 148 147 159 149 159 175 151 136 131 141 145 145 147 153 161 169 172 187 189 196 203 212 188 163 130 132 147 154 158 165 169 172 172 174
112 107 103 96 90 88 105 129 132 127 136 141 137 139 137 133 139 138 143 151 158 165 170 167 187 197 189 180 183 185 190 173 138 130 145 153 159 166 173 175 178 180 185
112 108 97 92 81 69 76 105 126 123 126 124 139 154 139 136 129 136 150 157 166 169 163 167 177 179 171 180 182 183 179 174 151 130 154 163 166 174 180 180 183 187 192
114 108 100 95 83 71 55 62 111 110 121 127 136 128 129 132 131 135 127 150 162 152 165 159 153 154 166 188 191 177 172 179 172 148 154 173 175 181 185 187 189 193 196
119 116 116 116 109 105 93 43 76 102 115 118 122 124 127 129 145 150 147 161 153 150 124 134 157 156 169 175 167 168 164 163 179 160 161 177 187 187 187 193 198 200 199
127 123 130 131 124 125 130 169 132 132 126 118 122 121 134 140 149 154 152 168 142 136 136 152 165 160 165 171 164 164 165 200 192 173 171 173 180 189 190 196 203 204 205
133 131 146 134 128 131 126 82 49 73 79 93 124 135 142 141 170 164 163 151 151 161 161 166 163 134 138 152 145 174 180 203 207 196 178 169 170 174 186 193 199 200 206
136 141 137 114 128 143 145 144 91 70 73 101 123 130 133 154 176 167 142 131 167 151 159 176 122 134 164 154 166 185 195 200 201 199 168 169 161 155 163 174 182 189 201
141 143 140 132 128 134 129 135 102 83 98 111 107 114 128 145 150 141 141 153 152 135 139 118 129 158 183 202 193 189 203 182 169 156 164 160 154 160 160 159 172 185 195
148 151 149 145 141 148 144 148 139 144 138 103 111 111 122 112 102 96 94 130 139 126 130 132 135 188 198 163 167 248 278 139 136 180 149 161 150 149 146 155 168 172 180
156 157 156 155 158 169 151 158 160 152 150 113 94 106 106 96 103 124 113 154 126 139 143 136 100 305 256 166 168 137 82 353 288 204 165 159 148 164 159 164 167 163 171
163 166 166 162 160 173 164 173 150 122 119 106 115 129 122 119 112 74 112 103 112 137 141 171 158 201 242 270 237 162 155 187 255 305 200 148 154 170 160 168 159 155 155
169 167 159 156 160 167 169 183 172 162 158 145 144 139 151 145 134 114 107 97 96 107 127 200 164 234 230 264 261 251 195 157 167 194 310 166 176 176 180 192 140 143 149
173 167 163 156 161 166 175 178 183 167 165 152 149 143 160 154 145 134 124 125 122 117 141 194 111 220 280 293 285 272 276 215 217 180 206 211 207 187 175 185 163 156 162
172 167 162 158 164 168 176 176 179 190 177 155 153 157 172 162 159 161 149 147 140 153 153 138 172 144 70 350 306 303 296 253 230 200 198 197 194 202 189 194 188 166 171